Location: San Martino di Castrozza
(46.2667°N, 11.8000°E)
Time: 07:49:28
(UTC+00:00)

Cosmos 1300 Rocket - Pass Details

Date: 23 April 2021
Orbit: 603 x 625 km, 82.5° (Epoch: 07 May)

Event Time Altitude Azimuth Distance (km) Brightness Sun altitude
Rises 02:24:06 0° 346° (NNW) 2,922 7.4 -17.0°
Reaches altitude 10° 02:26:23 10° 341° (NNW) 2,010 6.4 -16.7°
Maximum altitude 02:30:41 50° 266° (W) 803 3.8 -16.1°
Enters shadow 02:33:04 24° 202° (SSW) 1,294 4.7 -15.8°
